伽利略0206星导航星座 (GSAT0206 (GALILEO 10))

导读 | 豆包AI

GALILEO 10(又称伽利略10号,Oriana)是欧洲空间局(ESA)主导的伽利略全球卫星导航系统的全运行能力卫星,由OHB集团建造平台、萨里卫星技术有限公司研制载荷。它于2015年9月11日在圭亚那航天中心,搭乘联盟ST-B/Fregat-MT火箭发射,运行于倾角56°、高度约23616km的中地球轨道,卫星质量733kg,设计寿命12年,为全球提供高精度导航定位服务。

Basic Information
目录编号:
40890
目录名称:
GALILEO 10 (206)
国际标识:
2015-045B
轨道中心:
EARTH
卫星名称:
伽利略0206星
卫星全名:
伽利略0206星导航星座 (GSAT0206 (GALILEO 10))
卫星状态:
在轨 (已飞行3837 天)
发射日期:
2015-09-11 UTC
国别 :
(ESA)
星等 :
--
Orbit Information
数据来源 国际轨道数据 AOE轨道数据
星历时间 2026-03-12T10:01:26+0800
2天前
查看轨道信息
2026-03-13T14:00:00+0800
20小时前
查看轨道信息
半长轴 29600.344km 29600.321km
偏心率 0.0003542 0.0003508
轨道倾角 54.979° 54.979°
近地点辐角 50.500° 51.103°
升交点赤经 224.283° 224.250°
平近点角 309.490° 304.290°
近地点 23211.722km 23211.8km
远地点 23232.692km 23232.568km
周期 844.705分钟 844.704分钟
每日圈数 1.704738 1.70474
Detailed Information
平衡模式:
三轴稳定
覆盖范围:
全球
运营商:
欧盟空间计划局
运营商所在国:
法国大都会
使用方式:
暂无
Satellite Introduction
伽利略定位系统(Galileo)是一个全球导航卫星系统,于2016年投入使用由欧盟通过ESA创建,由欧盟空间计划局(EUSPA)运营。该系统有两个地面操控站,并且在高纬度地区提供比其他系统更好的定位服务。该卫星仍在工作。
2D Orbit Map
3D Orbit Map
Orbit Altitude Analysis Chart
Orbit Inclination Analysis Chart
Orbit Comprehensive Analysis Chart
View Comprehensive Chart